Time,TemperatureF,DewpointF,PressureIn,WindDirection,WindDirectionDegrees,WindSpeedMPH,WindSpeedGustMPH,Humidity,HourlyPrecipIn,Conditions,Clouds,dailyrainin,SoftwareType,DateUTC
2013-02-16 00:13:00,38.8,33.8,29.82,NNW,337,2.2,-999.0,82,-99.99,,,0.00,Acu-Link.com,2013-02-16 05:13:00,
2013-02-16 00:28:00,38.7,33.7,29.82,NNW,337,2.7,-999.0,82,-99.99,,,0.00,Acu-Link.com,2013-02-16 05:28:00,
2013-02-16 00:43:00,38.7,33.4,29.82,NNW,337,2.7,-999.0,81,-99.99,,,0.00,Acu-Link.com,2013-02-16 05:43:00,
2013-02-16 00:58:00,38.3,33.0,29.82,NNE,22,0.0,-999.0,81,-99.99,,,0.00,Acu-Link.com,2013-02-16 05:58:00,
2013-02-16 01:13:00,37.8,32.8,29.82,North,0,0.0,-999.0,82,-99.99,,,0.00,Acu-Link.com,2013-02-16 06:13:00,
2013-02-16 01:28:00,37.2,32.2,29.82,NE,45,0.0,-999.0,82,-99.99,,,0.00,Acu-Link.com,2013-02-16 06:28:00,
2013-02-16 01:44:00,37.4,32.4,29.81,NNE,22,3.7,-999.0,82,-99.99,,,0.00,Acu-Link.com,2013-02-16 06:44:00,
2013-02-16 01:59:00,37.0,32.3,29.81,East,90,0.0,-999.0,83,-99.99,,,0.00,Acu-Link.com,2013-02-16 06:59:00,
2013-02-16 02:14:00,36.7,32.3,29.80,ENE,67,0.0,-999.0,84,-99.99,,,0.00,Acu-Link.com,2013-02-16 07:14:00,
2013-02-16 02:29:00,36.0,32.8,29.80,North,0,0.0,-999.0,88,-99.99,,,0.00,Acu-Link.com,2013-02-16 07:29:00,
2013-02-16 02:44:00,35.2,32.0,29.78,NE,45,0.0,-999.0,88,-99.99,,,0.00,Acu-Link.com,2013-02-16 07:44:00,
2013-02-16 02:59:00,35.2,31.4,29.79,NNW,337,2.2,-999.0,86,-99.99,,,0.00,Acu-Link.com,2013-02-16 07:59:00,
2013-02-16 03:14:00,35.4,31.3,29.78,NNW,337,2.2,-999.0,85,-99.99,,,0.00,Acu-Link.com,2013-02-16 08:14:00,
2013-02-16 03:29:00,35.6,31.3,29.78,NW,315,1.7,-999.0,84,-99.99,,,0.00,Acu-Link.com,2013-02-16 08:29:00,
2013-02-16 03:44:00,35.4,31.1,29.78,East,90,1.7,-999.0,84,-99.99,,,0.00,Acu-Link.com,2013-02-16 08:44:00,
2013-02-16 04:00:00,35.8,30.9,29.78,NNW,337,5.3,-999.0,82,-99.99,,,0.00,Acu-Link.com,2013-02-16 09:00:00,
2013-02-16 04:18:00,35.8,30.9,29.78,North,0,3.2,-999.0,82,-99.99,,,0.00,Acu-Link.com,2013-02-16 09:18:00,
2013-02-16 04:33:00,36.0,30.7,29.78,ESE,112,3.2,-999.0,81,-99.99,,,0.00,Acu-Link.com,2013-02-16 09:33:00,
2013-02-16 04:48:00,35.6,30.1,29.78,NNE,22,3.7,-999.0,80,-99.99,,,0.00,Acu-Link.com,2013-02-16 09:48:00,
2013-02-16 05:03:00,35.2,29.7,29.78,NNE,22,3.7,-999.0,80,-99.99,,,0.00,Acu-Link.com,2013-02-16 10:03:00,
2013-02-16 05:19:00,34.9,28.8,29.80,NNW,337,5.8,-999.0,78,-99.99,,,0.00,Acu-Link.com,2013-02-16 10:19:00,
2013-02-16 05:34:00,34.3,28.8,29.79,NE,45,2.7,-999.0,80,-99.99,,,0.00,Acu-Link.com,2013-02-16 10:34:00,
2013-02-16 05:49:00,33.8,28.6,29.79,NE,45,2.7,-999.0,81,-99.99,,,0.00,Acu-Link.com,2013-02-16 10:49:00,
2013-02-16 06:04:00,33.4,27.6,29.79,NNW,337,3.7,-999.0,79,-99.99,,,0.00,Acu-Link.com,2013-02-16 11:04:00,
2013-02-16 06:19:00,32.9,27.4,29.79,NNW,337,4.7,-999.0,80,-99.99,,,0.00,Acu-Link.com,2013-02-16 11:19:00,
2013-02-16 06:34:00,32.5,27.3,29.80,NNW,337,1.1,-999.0,81,-99.99,,,0.00,Acu-Link.com,2013-02-16 11:34:00,
2013-02-16 06:49:00,32.0,27.1,29.79,NNW,337,0.0,-999.0,82,-99.99,,,0.00,Acu-Link.com,2013-02-16 11:49:00,
2013-02-16 07:05:00,31.3,26.7,29.81,NNE,22,1.7,-999.0,83,-99.99,,,0.00,Acu-Link.com,2013-02-16 12:05:00,
2013-02-16 07:20:00,30.9,26.9,29.80,ESE,112,0.0,-999.0,85,-99.99,,,0.00,Acu-Link.com,2013-02-16 12:20:00,
2013-02-16 07:35:00,30.4,26.4,29.80,North,0,2.7,-999.0,85,-99.99,,,0.00,Acu-Link.com,2013-02-16 12:35:00,
2013-02-16 07:50:00,30.6,26.4,29.81,SE,135,0.0,-999.0,84,-99.99,,,0.00,Acu-Link.com,2013-02-16 12:50:00,
2013-02-16 08:05:00,30.9,26.1,29.82,NW,315,2.7,-999.0,82,-99.99,,,0.00,Acu-Link.com,2013-02-16 13:05:00,
2013-02-16 08:20:00,31.5,26.4,29.82,NE,45,1.7,-999.0,81,-99.99,,,0.00,Acu-Link.com,2013-02-16 13:20:00,
2013-02-16 08:35:00,31.8,26.3,29.82,NNE,22,2.7,-999.0,80,-99.99,,,0.00,Acu-Link.com,2013-02-16 13:35:00,
2013-02-16 08:50:00,33.1,26.7,29.82,North,0,4.7,-999.0,77,-99.99,,,0.00,Acu-Link.com,2013-02-16 13:50:00,
2013-02-16 09:05:00,33.6,27.2,29.82,NNE,22,4.2,-999.0,77,-99.99,,,0.00,Acu-Link.com,2013-02-16 14:05:00,
2013-02-16 09:21:00,34.5,27.1,29.82,NE,45,3.7,-999.0,74,-99.99,,,0.00,Acu-Link.com,2013-02-16 14:21:00,
2013-02-16 09:36:00,34.9,26.5,29.81,WNW,292,5.3,-999.0,71,-99.99,,,0.00,Acu-Link.com,2013-02-16 14:36:00,
2013-02-16 09:51:00,34.3,26.2,29.82,NNW,337,4.2,-999.0,72,-99.99,,,0.00,Acu-Link.com,2013-02-16 14:51:00,
2013-02-16 10:06:00,35.1,26.7,29.81,North,0,12.5,-999.0,71,-99.99,,,0.00,Acu-Link.com,2013-02-16 15:06:00,
2013-02-16 10:21:00,35.2,25.4,29.82,NNW,337,5.3,-999.0,67,-99.99,,,0.00,Acu-Link.com,2013-02-16 15:21:00,
2013-02-16 10:36:00,36.3,26.4,29.82,NW,315,4.2,-999.0,67,-99.99,,,0.00,Acu-Link.com,2013-02-16 15:36:00,
2013-02-16 10:51:00,35.6,25.0,29.82,North,0,3.7,-999.0,65,-99.99,,,0.00,Acu-Link.com,2013-02-16 15:51:00,
2013-02-16 11:06:00,37.8,26.7,29.82,NE,45,4.7,-999.0,64,-99.99,,,0.00,Acu-Link.com,2013-02-16 16:06:00,
2013-02-16 11:21:00,37.2,24.2,29.82,NNW,337,5.3,-999.0,59,-99.99,,,0.00,Acu-Link.com,2013-02-16 16:21:00,
2013-02-16 11:37:00,38.7,25.2,29.82,NW,315,2.2,-999.0,58,-99.99,,,0.00,Acu-Link.com,2013-02-16 16:37:00,
2013-02-16 11:52:00,39.2,23.5,29.82,NNE,22,10.4,-999.0,53,-99.99,,,0.00,Acu-Link.com,2013-02-16 16:52:00,
2013-02-16 12:07:00,38.7,22.1,29.82,NNW,337,9.9,-999.0,51,-99.99,,,0.00,Acu-Link.com,2013-02-16 17:07:00,
2013-02-16 12:22:00,40.1,23.0,29.81,NNW,337,5.8,-999.0,50,-99.99,,,0.00,Acu-Link.com,2013-02-16 17:22:00,
2013-02-16 12:37:00,38.3,20.4,29.81,NNW,337,7.3,-999.0,48,-99.99,,,0.00,Acu-Link.com,2013-02-16 17:37:00,
2013-02-16 12:52:00,38.1,20.7,29.81,North,0,6.3,-999.0,49,-99.99,,,0.00,Acu-Link.com,2013-02-16 17:52:00,
2013-02-16 13:07:00,38.1,20.7,29.81,North,0,10.4,-999.0,49,-99.99,,,0.00,Acu-Link.com,2013-02-16 18:07:00,
2013-02-16 13:22:00,38.1,19.7,29.80,WNW,292,10.4,-999.0,47,-99.99,,,0.00,Acu-Link.com,2013-02-16 18:22:00,
2013-02-16 13:37:00,39.0,21.5,29.80,North,0,11.4,-999.0,49,-99.99,,,0.00,Acu-Link.com,2013-02-16 18:37:00,
2013-02-16 13:53:00,40.6,23.0,29.79,ENE,67,9.4,-999.0,49,-99.99,,,0.00,Acu-Link.com,2013-02-16 18:53:00,
2013-02-16 14:08:00,40.5,21.4,29.80,NNE,22,7.3,-999.0,46,-99.99,,,0.00,Acu-Link.com,2013-02-16 19:08:00,
2013-02-16 14:23:00,38.3,19.4,29.80,NNW,337,10.9,-999.0,46,-99.99,,,0.00,Acu-Link.com,2013-02-16 19:23:00,
2013-02-16 14:38:00,40.3,20.7,29.80,NNW,337,9.4,-999.0,45,-99.99,,,0.00,Acu-Link.com,2013-02-16 19:38:00,
2013-02-16 14:53:00,38.5,22.0,29.80,North,0,8.9,-999.0,51,-99.99,,,0.00,Acu-Link.com,2013-02-16 19:53:00,
2013-02-16 15:08:00,37.4,20.9,29.80,ENE,67,5.3,-999.0,51,-99.99,,,0.00,Acu-Link.com,2013-02-16 20:08:00,
2013-02-16 15:23:00,37.2,19.3,29.80,ESE,112,10.4,-999.0,48,-99.99,,,0.00,Acu-Link.com,2013-02-16 20:23:00,
2013-02-16 15:38:00,37.2,21.2,29.80,North,0,10.4,-999.0,52,-99.99,,,0.00,Acu-Link.com,2013-02-16 20:38:00,
2013-02-16 15:53:00,37.8,22.2,29.80,NE,45,6.3,-999.0,53,-99.99,,,0.00,Acu-Link.com,2013-02-16 20:53:00,
2013-02-16 16:09:00,37.0,19.2,29.81,NNE,22,2.7,-999.0,48,-99.99,,,0.00,Acu-Link.com,2013-02-16 21:09:00,
2013-02-16 16:24:00,38.3,20.4,29.82,NNW,337,5.8,-999.0,48,-99.99,,,0.00,Acu-Link.com,2013-02-16 21:24:00,
2013-02-16 16:39:00,39.0,20.0,29.81,NNW,337,9.9,-999.0,46,-99.99,,,0.00,Acu-Link.com,2013-02-16 21:39:00,
2013-02-16 16:54:00,38.7,21.7,29.81,North,0,5.3,-999.0,50,-99.99,,,0.00,Acu-Link.com,2013-02-16 21:54:00,
2013-02-16 17:09:00,37.0,22.4,29.83,West,270,4.7,-999.0,55,-99.99,,,0.00,Acu-Link.com,2013-02-16 22:09:00,
2013-02-16 17:24:00,37.2,22.1,29.83,South,180,2.7,-999.0,54,-99.99,,,0.00,Acu-Link.com,2013-02-16 22:24:00,
2013-02-16 17:39:00,35.8,20.8,29.83,NW,315,6.3,-999.0,54,-99.99,,,0.00,Acu-Link.com,2013-02-16 22:39:00,
2013-02-16 17:54:00,35.2,20.7,29.83,NNW,337,4.2,-999.0,55,-99.99,,,0.00,Acu-Link.com,2013-02-16 22:54:00,
2013-02-16 18:09:00,34.9,20.8,29.84,NNE,22,2.7,-999.0,56,-99.99,,,0.00,Acu-Link.com,2013-02-16 23:09:00,
2013-02-16 18:25:00,34.5,21.3,29.84,NNW,337,2.7,-999.0,58,-99.99,,,0.00,Acu-Link.com,2013-02-16 23:25:00,
2013-02-16 18:40:00,33.4,23.3,29.85,NNW,337,4.7,-999.0,66,-99.99,,,0.00,Acu-Link.com,2013-02-16 23:40:00,
2013-02-16 18:55:00,32.7,24.0,29.86,North,0,4.2,-999.0,70,-99.99,,,0.00,Acu-Link.com,2013-02-16 23:55:00,
2013-02-16 19:10:00,31.8,24.8,29.86,NW,315,2.7,-999.0,75,-99.99,,,0.00,Acu-Link.com,2013-02-17 00:10:00,
2013-02-16 19:25:00,31.1,23.5,29.87,NNE,22,0.0,-999.0,73,-99.99,,,0.00,Acu-Link.com,2013-02-17 00:25:00,
2013-02-16 19:40:00,30.4,23.4,29.87,North,0,0.0,-999.0,75,-99.99,,,0.00,Acu-Link.com,2013-02-17 00:40:00,
2013-02-16 19:56:00,30.0,23.1,29.87,NNW,337,1.7,-999.0,75,-99.99,,,0.00,Acu-Link.com,2013-02-17 00:56:00,
2013-02-16 20:11:00,29.7,23.7,29.87,NNE,22,0.0,-999.0,78,-99.99,,,0.00,Acu-Link.com,2013-02-17 01:11:00,
2013-02-16 20:26:00,29.1,23.1,29.88,NNW,337,0.0,-999.0,78,-99.99,,,0.00,Acu-Link.com,2013-02-17 01:26:00,
2013-02-16 20:41:00,28.8,22.8,29.88,ESE,112,0.0,-999.0,78,-99.99,,,0.00,Acu-Link.com,2013-02-17 01:41:00,
2013-02-16 20:56:00,28.0,22.9,29.89,WNW,292,0.0,-999.0,81,-99.99,,,0.00,Acu-Link.com,2013-02-17 01:56:00,
2013-02-16 21:11:00,27.7,22.6,29.90,NNW,337,0.0,-999.0,81,-99.99,,,0.00,Acu-Link.com,2013-02-17 02:11:00,
2013-02-16 21:26:00,27.1,22.9,29.90,NNE,22,2.2,-999.0,84,-99.99,,,0.00,Acu-Link.com,2013-02-17 02:26:00,
2013-02-16 21:42:00,28.4,22.1,29.90,NNW,337,3.7,-999.0,77,-99.99,,,0.00,Acu-Link.com,2013-02-17 02:42:00,
2013-02-16 21:57:00,28.4,21.8,29.91,NNW,337,0.0,-999.0,76,-99.99,,,0.00,Acu-Link.com,2013-02-17 02:57:00,
2013-02-16 22:12:00,27.9,21.0,29.91,North,0,5.3,-999.0,75,-99.99,,,0.00,Acu-Link.com,2013-02-17 03:12:00,
2013-02-16 22:27:00,29.1,19.2,29.91,North,0,2.7,-999.0,66,-99.99,,,0.00,Acu-Link.com,2013-02-17 03:27:00,
2013-02-16 22:42:00,29.1,18.8,29.92,WNW,292,4.7,-999.0,65,-99.99,,,0.00,Acu-Link.com,2013-02-17 03:42:00,
2013-02-16 22:57:00,28.8,18.2,29.92,NE,45,3.2,-999.0,64,-99.99,,,0.00,Acu-Link.com,2013-02-17 03:57:00,
2013-02-16 23:13:00,28.8,17.4,29.93,NNW,337,2.7,-999.0,62,-99.99,,,0.00,Acu-Link.com,2013-02-17 04:13:00,
2013-02-16 23:28:00,28.2,16.9,29.92,West,270,0.0,-999.0,62,-99.99,,,0.00,Acu-Link.com,2013-02-17 04:28:00,
2013-02-16 23:43:00,28.0,16.7,29.93,NNW,337,1.7,-999.0,62,-99.99,,,0.00,Acu-Link.com,2013-02-17 04:43:00,
2013-02-16 23:58:00,27.5,16.2,29.93,ENE,67,0.0,-999.0,62,-99.99,,,0.00,Acu-Link.com,2013-02-17 04:58:00,